Location: B?dimalle
(17.1788°N, 80.5377°E)
Time: 11:02:48
(UTC+00:00)

Tiros 1 despin weight - Pass Details

Date: 20 February 2026
Orbit: 556 x 593 km, 48.2° (Epoch: 10 March)

Event Time Altitude Azimuth Distance (km) Brightness Sun altitude
Rises 15:50:15 0° 327° (NNW) 2,730 - -45.6°
Reaches altitude 10° 15:52:36 10° 335° (NNW) 1,838 - -46.2°
Maximum altitude 15:56:34 41° 46° (NE) 819 - -47.2°
Drops below altitude 10° 16:00:35 10° 117° (ESE) 1,856 - -48.1°
Sets 16:02:57 0° 124° (SE) 2,758 - -48.7°
